TimeAKDT,TemperatureF,Dew PointF,Humidity,Sea Level PressureIn,VisibilityMPH,Wind Direction,Wind SpeedMPH,Gust SpeedMPH,PrecipitationIn,Events,Conditions,WindDirDegrees,DateUTC
12:55 AM,64.2,57.2,78,30.06,10.0,SE,4.6,-,N/A,,Overcast,140,2013-07-29 08:55:00
1:55 AM,67.5,53.8,61,30.09,10.0,Variable,5.8,-,N/A,,Overcast,0,2013-07-29 09:55:00
2:55 AM,68.7,55.2,62,30.10,10.0,Variable,4.6,-,N/A,,Overcast,0,2013-07-29 10:55:00
3:55 AM,68.0,55.2,64,30.10,10.0,Variable,5.8,-,N/A,,Scattered Clouds,0,2013-07-29 11:55:00
4:55 AM,66.6,55.4,67,30.11,10.0,Calm,Calm,-,0.00,Rain,Light Rain,0,2013-07-29 12:55:00
5:55 AM,64.9,57.0,75,30.11,10.0,Variable,3.5,-,0.00,,Mostly Cloudy,0,2013-07-29 13:55:00
6:55 AM,67.5,57.9,71,30.12,10.0,West,5.8,-,N/A,,Mostly Cloudy,260,2013-07-29 14:55:00
7:55 AM,67.3,58.1,72,30.12,10.0,WSW,6.9,-,N/A,,Overcast,250,2013-07-29 15:55:00
8:55 AM,67.6,58.6,73,30.13,10.0,Calm,Calm,-,0.00,,Overcast,0,2013-07-29 16:55:00
9:55 AM,69.1,56.8,65,30.13,10.0,Variable,5.8,-,N/A,,Overcast,0,2013-07-29 17:55:00
10:55 AM,70.9,56.1,59,30.14,10.0,WNW,9.2,-,N/A,,Mostly Cloudy,290,2013-07-29 18:55:00
11:55 AM,73.4,57.7,58,30.14,10.0,Variable,5.8,-,N/A,,Scattered Clouds,0,2013-07-29 19:55:00
12:55 PM,75.0,56.8,53,30.14,10.0,Variable,5.8,-,N/A,,Mostly Cloudy,0,2013-07-29 20:55:00
1:55 PM,75.4,56.3,51,30.13,10.0,SW,10.4,-,N/A,,Mostly Cloudy,230,2013-07-29 21:55:00
2:55 PM,76.5,54.0,46,30.12,10.0,West,11.5,19.6,N/A,,Clear,260,2013-07-29 22:55:00
4:55 PM,77.9,52.5,41,30.10,10.0,West,9.2,-,N/A,,Scattered Clouds,280,2013-07-30 00:55:00
5:55 PM,77.9,52.3,41,30.09,10.0,WNW,13.8,-,N/A,,Scattered Clouds,300,2013-07-30 01:55:00
6:55 PM,77.5,51.4,40,30.09,10.0,WNW,9.2,-,N/A,,Partly Cloudy,290,2013-07-30 02:55:00
7:55 PM,77.4,50.9,39,30.08,10.0,West,8.1,-,N/A,,Partly Cloudy,280,2013-07-30 03:55:00
8:55 PM,75.7,50.9,42,30.09,10.0,Variable,6.9,-,N/A,,Partly Cloudy,0,2013-07-30 04:55:00
9:55 PM,73.0,52.2,48,30.09,10.0,Variable,5.8,-,N/A,,Partly Cloudy,0,2013-07-30 05:55:00